Main page
Satellite images Climate Cyclones Lightning AirportsFAQ Languages Contact Newsletter About
Weather : Europe Africa North America South America Asia Australia-Oceania Others

, Da Nang, Da Nang International Airport

latitude: , longitude: Vietnam, elevation: 16-02N m


METAR: VVDN 241300Z 32006KT 8000 FEW013 BKN060 21/19 Q1017 NOSIG